Regional Weather Roundup
Issued by NWS

Home | Current Version | Previous Version | Graphics & Text | Print | Product List | Glossary On
Versions: 1 2 3 4 5 6 7 8 9 10 11 12 13 14 15 16 17 18 19 20 21 22 23 24 25 26 27 28 29 30 31 32 33 34 35 36 37 38 39 40 41 42 43 44 45 46 47 48 49 50
262
ASUS43 KMKX 201259
RWRWI

WISCONSIN REGIONAL WEATHER ROUNDUP
NATIONAL WEATHER SERVICE MILWAUKEE/SULLIVAN WI
700 AM CST SAT JAN 20 2018

NOTE: "FAIR" INDICATES FEW OR NO CLOUDS BELOW 12,000 FEET WITH NO
SIGNIFICANT WEATHER AND/OR OBSTRUCTIONS TO VISIBILITY.

WIZ001-002-006>008-014>016-023>028-201400-
NORTHWEST WISCONSIN

CITY           SKY/WX    TMP DP  RH WIND       PRES   REMARKS
SUPERIOR ARPT  FAIR      28  27  95 SW7       29.79R WCI  21
ASHLAND        FAIR      24  23  96 SW7       29.78R WCI  16
HAYWARD        MOCLDY    16  10  77 CALM      29.80R
SIREN          FAIR      26  25  98 CALM      29.81R
CUMBERLAND       N/A     27  25  93 W3        29.80R FOG
RICE LAKE      FOG       16  15  95 CALM      29.82R VSB 3/4
CHETEK         FAIR      17  16  93 N3        29.81R
LADYSMITH        N/A     13  11  91 CALM      29.81R FOG
EAU CLAIRE     FOG       26  25  96 CALM      29.81S VSB 1
MENOMONIE      FAIR      20  19  96 CALM      29.82R FOG
NEW RICHMOND   FAIR      19  17  95 CALM      29.82R
OSCEOLA        FAIR      19  19 100 CALM      29.85R
$$

WIZ003>005-009-010-017-018-201400-
NORTH CENTRAL WISCONSIN

CITY           SKY/WX    TMP DP  RH WIND       PRES   REMARKS
MANITOWISH WTR FAIR      17  17 100 CALM      29.74R
ARBOR VITAE    FOG       22  20  93 CALM      29.74R VSB 1/2
WOODRUFF       FOG       22  20  93 CALM      29.74R VSB 1/2
RHINELANDER    FAIR      23  21  92 W5        29.76R WCI  17
EAGLE RIVER    FOG       18  18  99 W3        29.73R VSB 1/4
LAND O LAKES   FAIR      12  10  90 CALM      29.75R
PHILLIPS       FAIR      13  12  96 CALM      29.77R FOG
TOMAHAWK       FAIR      19  18  94 CALM      29.77R
MEDFORD          N/A     24  23  97 CALM      29.78R FOG
MERRILL        FOG       20  20  98 CALM      29.79R VSB 1/4
$$

WIZ029-030-035-036-043>047-201400-
CENTRAL WISCONSIN

CITY           SKY/WX    TMP DP  RH WIND       PRES   REMARKS
WAUSAU         FAIR      29  26  89 NW7       29.78R WCI  22
MOSINEE        PTCLDY    27  27 100 CALM      29.80R
MARSHFIELD     FAIR      29  26  89 W5        29.78R WCI  24
STEVENS POINT  FAIR      22  22 100 CALM      29.81R
WAUPACA        FAIR      29  26  88 CALM      29.80R
WAUTOMA        FAIR      22  20  92 CALM      29.82R
WISC RAPIDS    FOG       24  22  91 CALM      29.82R VSB 3/4
CAMP DOUGLAS   FAIR      20  20  98 CALM      29.82R
$$

WIZ011>013-019>022-031-037>040-048>050-201400-
NORTHEAST WISCONSIN

CITY           SKY/WX    TMP DP  RH WIND       PRES   REMARKS
ANTIGO         FAIR      22  22 100 W5        29.76R FOG     WCI  16
SHAWANO        FAIR      33  28  85 CALM      29.78R
OCONTO         FAIR      32  27  83 CALM      29.77R
STURGEON BAY   FAIR      33  28  81 W6        29.78R WCI  28
GREEN BAY      FAIR      30  25  81 SW6       29.80R WCI  24
MANITOWOC      FAIR      35  28  75 W5        29.80R WCI  31
APPLETON       MOCLDY    28  25  86 CALM      29.79R
CLINTONVILLE   FAIR      28  27  93 SW5       29.79R WCI  23
OSHKOSH        FAIR      27  25  92 S5        29.81R WCI  22
$$

WIZ032>034-041-042-053>061-201400-
SOUTHWEST WISCONSIN

CITY           SKY/WX    TMP DP  RH WIND       PRES   REMARKS
LA CROSSE      FOG       23  20  88 CALM      29.83S VSB 1/4
SPARTA         FAIR      19  19  97 CALM      29.84R
VIROQUA        FAIR      31  31 100 SW5       29.81R WCI  26
BOSCOBEL       FAIR      26  24  92 CALM      29.85R
PRAIRIE DU CHI FAIR      27  25  91 CALM      29.84R
PLATTEVILLE    FAIR      29  28  94 S3        29.84R
$$

WIZ056-057-062-063-064-067-068-201400-
SOUTH CENTRAL WISCONSIN

CITY           SKY/WX    TMP DP  RH WIND       PRES   REMARKS
REEDSBURG      FAIR      26  26 100 CALM      29.82R
BARABOO/DELLS  FAIR      31  27  86 W3        29.81R
LONE ROCK      NOT AVBL
MINERAL POINT  FAIR      32  32 100 S3        29.82S
MADISON        MOCLDY    26  24  92 CALM      29.83R
MIDDLETON      FAIR      32  28  86 S3        29.83R
WATERTOWN      FAIR      26  26 100 CALM      29.83R
MONROE         FAIR      30  27  86 SW8       29.82S WCI  23
JANESVILLE     CLEAR     34  28  80 CALM      29.84S
$$

WIZ051-052-058>065-066-070>072-201400-
SOUTHEAST WISCONSIN

CITY           SKY/WX    TMP DP  RH WIND       PRES   REMARKS
MILWAUKEE      FAIR      36  28  73 SW3       29.83R
WAUKESHA       CLEAR     30  27  86 SW7       29.83S WCI  23
MILWAUKEE/TIMM FAIR      34  27  75 W8        29.83S WCI  27
RACINE         FAIR      36  28  73 W8        29.85R WCI  30
BURLINGTON     FAIR      32  27  81 W3        29.84R
KENOSHA        FAIR      32  26  78 W7        29.84R WCI  26
FOND DU LAC    FAIR      32  25  75 SW6       29.82R WCI  26
SHEBOYGAN      FAIR      31  28  89 W7        29.81R WCI  24
WEST BEND      FAIR      32  28  86 W3        29.82R
JUNEAU         FAIR      29  26  88 SW3       29.84R
$$

LSZ147-162-201400-
LAKE SUPERIOR

STATION/POSITION TIME  TEMP    WIND        PRES    WAVE
                       AIR SEA DIR/SP/G            HT/PER
                 (UTC) (F)     (DEG/KT/KT) (MB)    (FT/S)
DEVILS ISLAND    1200   34     230/ 12/ 14 1007.6R
SAXON HARBOR     1230   27     200/  8/  9 1007.5R
$$

LMZ867-665-643>646-201400-
LAKE MICHIGAN

STATION/POSITION TIME  TEMP    WIND        PRES    WAVE
                       AIR SEA DIR/SP/G            HT/PER
                 (UTC) (F)     (DEG/KT/KT) (MB)    (FT/S)
NORTHPORT PIER   1240   34     250/  9/ 18 1007.8R
KEWAUNEE LAKESHO 1230   36     280/  6/ 11 1007.5R
SHEBOYGAN LAKESH 1200   37     260/  6/  7 1009.2R
PORT WASHINGTON  1230   35     270/ 10/ 11 1010.8R
MILWAUKEE LAKESH 1230   37     250/  5/  8   N/A
KENOSHA   LAKESH 1200   37     250/  8/ 12 1010.5
$$

TC  - TEMPERATURE IN CELSIUS
VSB - VISIBILITY IN STATUTE MILES
WCI - WIND CHILL INDEX
HX  - HEAT INDEX





USA.gov is the U.S. government's official web portal to all federal, state and local government web resources and services.